Location: Central Coast NSW, Australia
(33.2407°S, 151.4316°E)
Time: 20:05:44
(UTC+11:00)

N. Korean satellite - Visible Passes

Search period start: 18 February 2018 00:00
Search period end: 28 February 2018 00:00
Orbit: 459 x 514 km, 97.2° (Epoch: 17 February)

Date Brightness Start Highest point End Pass type
(mag) Time Alt. Az. Time Alt. Az. Time Alt. Az.
20 Feb 10.1 06:04:56 10° ENE 06:07:39 19° ESE 06:10:23 10° SSE visible
21 Feb 9.9 20:19:08 10° SSW 20:21:42 19° WSW 20:24:14 10° WNW visible
24 Feb 10.1 06:03:34 10° ENE 06:06:12 18° ESE 06:08:51 10° SSE visible
25 Feb 9.8 20:17:36 10° SSW 20:20:11 19° WSW 20:22:44 10° WNW visible
26 Feb 8.2 19:53:13 10° S 19:56:34 40° WSW 19:59:51 10° NW visible
